Location: Bouchavesnes-Bergen
(49.9859°N, 2.9203°E)
Time: 18:18:39
(UTC+00:00)

IDEFIX/ARIANE 42P - Visible Passes

Search period start: 22 June 2021 00:00
Search period end: 02 July 2021 00:00
Orbit: 786 x 802 km, 98.4° (Epoch: 21 June)

Date Brightness Start Highest point End Pass type
(mag) Time Alt. Az. Time Alt. Az. Time Alt. Az.
22 Jun 3.0 02:24:01 10° NNE 02:29:14 62° ESE 02:34:24 10° S visible
23 Jun 3.8 01:55:51 10° NNE 02:00:42 37° E 02:05:30 10° SSE visible
24 Jun 4.5 01:28:00 10° NE 01:32:02 22° E 01:36:03 10° SE visible
25 Jun 5.0 01:00:55 10° ENE 01:03:15 13° E 01:05:35 10° ESE visible
25 Jun 2.7 02:38:25 10° NNE 02:43:42 81° ESE 02:48:55 10° SSW visible
26 Jun 3.4 02:10:09 10° NNE 02:15:13 48° E 02:20:15 10° S visible
27 Jun 4.2 01:42:06 10° NE 01:46:38 29° E 01:51:06 10° SSE visible
28 Jun 4.8 01:14:31 10° NE 01:17:55 17° E 01:21:16 10° SE visible
28 Jun 2.6 02:52:52 10° NNE 02:58:07 78° WNW 03:03:19 10° SSW visible
29 Jun 3.0 02:24:30 10° NNE 02:29:43 63° ESE 02:34:52 10° S visible
30 Jun 3.8 01:56:19 10° NNE 02:01:11 37° E 02:05:59 10° SSE visible
01 Jul 4.5 01:28:27 10° NE 01:32:32 22° E 01:36:33 10° SE visible
